When you browse on this site, cookies collect data to enhance your experience and personalize the content and advertising you see.
Visit our Privacy Policy to learn more. By continuing to use the site, you agree to this use of cookies and data.
  • In Deutschland
  • Länderverzeichnis
  • Für 7 Tage
  • Wassertemperatur
  • Wetterkarte
  • Widgets
  • user-avatar
    Anmelden

    Stündliche Wetter Zascienie

    Heute, 2 Juni, Dienstag

    Zeit Temperatur Niederschläge Wind Luftdruck Luftfeuchtigkeit
    00:00 +9°C° 0.4 mm 3 m/S 753 mmHg 90%
    01:00 +9°C° 0.4 mm 3 m/S 753 mmHg 92%
    02:00 +8°C° 0 mm 3 m/S 753 mmHg 93%
    03:00 +8°C° 0 mm 3 m/S 753 mmHg 93%
    04:00 +7°C° 0 mm 3 m/S 753 mmHg 93%
    05:00 +8°C° 0 mm 4 m/S 753 mmHg 87%
    06:00 +10°C° 0 mm 4 m/S 753 mmHg 80%
    07:00 +10°C° 0 mm 5 m/S 753 mmHg 73%
    08:00 +13°C° 0 mm 5 m/S 752 mmHg 67%
    09:00 +14°C° 0 mm 6 m/S 752 mmHg 61%
    10:00 +15°C° 0 mm 6 m/S 752 mmHg 55%
    11:00 +16°C° 0 mm 6 m/S 751 mmHg 55%
    12:00 +16°C° 0 mm 6 m/S 751 mmHg 54%
    13:00 +17°C° 0 mm 6 m/S 751 mmHg 54%
    14:00 +17°C° 0.2 mm 6 m/S 750 mmHg 56%
    15:00 +17°C° 0.2 mm 6 m/S 750 mmHg 58%
    16:00 +16°C° 0.2 mm 6 m/S 749 mmHg 60%
    17:00 +15°C° 0.1 mm 5 m/S 749 mmHg 65%
    18:00 +14°C° 0.1 mm 4 m/S 749 mmHg 70%
    19:00 +13°C° 0.1 mm 4 m/S 749 mmHg 75%
    20:00 +12°C° 0 mm 3 m/S 749 mmHg 80%
    21:00 +11°C° 0 mm 3 m/S 749 mmHg 84%
    22:00 +9°C° 0 mm 3 m/S 748 mmHg 88%
    23:00 +9°C° 0 mm 3 m/S 748 mmHg 89%

    Morgen, 3 Juni, Mittwoch

    Zeit Temperatur Niederschläge Wind Luftdruck Luftfeuchtigkeit
    00:00 +8°C° 0 mm 3 m/S 748 mmHg 91%
    01:00 +8°C° 0 mm 3 m/S 748 mmHg 92%
    02:00 +7°C° 0 mm 3 m/S 747 mmHg 92%
    03:00 +7°C° 0 mm 3 m/S 747 mmHg 92%
    04:00 +7°C° 0 mm 3 m/S 747 mmHg 92%
    05:00 +8°C° 0.1 mm 3 m/S 747 mmHg 88%
    06:00 +10°C° 0.1 mm 3 m/S 747 mmHg 84%
    07:00 +11°C° 0.1 mm 3 m/S 746 mmHg 79%
    08:00 +11°C° 0.1 mm 4 m/S 746 mmHg 79%
    09:00 +11°C° 0.1 mm 4 m/S 746 mmHg 79%
    10:00 +12°C° 0.1 mm 4 m/S 746 mmHg 80%
    11:00 +13°C° 0.2 mm 4 m/S 746 mmHg 76%
    12:00 +14°C° 0.2 mm 4 m/S 746 mmHg 72%
    13:00 +15°C° 0.2 mm 4 m/S 745 mmHg 68%
    14:00 +15°C° 0.3 mm 4 m/S 745 mmHg 67%
    15:00 +17°C° 0.3 mm 4 m/S 745 mmHg 67%
    16:00 +17°C° 0.3 mm 4 m/S 744 mmHg 66%
    17:00 +15°C° 0.1 mm 4 m/S 744 mmHg 72%
    18:00 +14°C° 0.1 mm 3 m/S 744 mmHg 77%
    19:00 +14°C° 0.1 mm 2 m/S 744 mmHg 82%
    20:00 +13°C° 0 mm 2 m/S 744 mmHg 85%
    21:00 +12°C° 0 mm 2 m/S 744 mmHg 88%
    22:00 +10°C° 0 mm 2 m/S 744 mmHg 92%
    23:00 +9°C° 0 mm 2 m/S 744 mmHg 92%

    übermorgen, 4 Juni, Donnerstag

    Zeit Temperatur Niederschläge Wind Luftdruck Luftfeuchtigkeit
    00:00 +9°C° 0 mm 2 m/S 743 mmHg 93%
    01:00 +8°C° 0 mm 2 m/S 743 mmHg 93%
    02:00 +8°C° 0 mm 2 m/S 743 mmHg 93%
    03:00 +9°C° 0 mm 1 m/S 743 mmHg 94%
    04:00 +9°C° 0 mm 1 m/S 743 mmHg 94%
    05:00 +10°C° 0 mm 1 m/S 743 mmHg 89%
    06:00 +12°C° 0 mm 1 m/S 743 mmHg 84%
    07:00 +14°C° 0 mm 1 m/S 743 mmHg 79%
    08:00 +15°C° 0.1 mm 2 m/S 742 mmHg 72%
    09:00 +17°C° 0.1 mm 2 m/S 742 mmHg 65%
    10:00 +18°C° 0.1 mm 2 m/S 742 mmHg 58%
    11:00 +19°C° 0.4 mm 2 m/S 742 mmHg 57%
    12:00 +19°C° 0.4 mm 2 m/S 741 mmHg 57%
    13:00 +20°C° 0.4 mm 2 m/S 741 mmHg 56%
    14:00 +20°C° 0.1 mm 2 m/S 741 mmHg 55%
    15:00 +20°C° 0.1 mm 2 m/S 741 mmHg 54%
    16:00 +20°C° 0.1 mm 2 m/S 741 mmHg 53%
    17:00 +20°C° 0 mm 1 m/S 740 mmHg 59%
    18:00 +19°C° 0 mm 1 m/S 740 mmHg 65%
    19:00 +18°C° 0 mm 1 m/S 740 mmHg 70%
    20:00 +16°C° 0 mm 2 m/S 740 mmHg 74%
    21:00 +15°C° 0 mm 2 m/S 740 mmHg 78%
    22:00 +12°C° 0 mm 3 m/S 741 mmHg 82%
    23:00 +12°C° 0 mm 3 m/S 740 mmHg 84%

    5 Juni, Freitag

    Zeit Temperatur Niederschläge Wind Luftdruck Luftfeuchtigkeit
    00:00 +11°C° 0 mm 3 m/S 740 mmHg 86%
    01:00 +11°C° 0 mm 3 m/S 740 mmHg 87%
    02:00 +11°C° 0 mm 3 m/S 740 mmHg 87%
    03:00 +11°C° 0 mm 3 m/S 739 mmHg 87%
    04:00 +11°C° 0 mm 4 m/S 739 mmHg 87%
    05:00 +12°C° 0 mm 4 m/S 739 mmHg 84%
    06:00 +14°C° 0 mm 5 m/S 739 mmHg 80%
    07:00 +16°C° 0 mm 6 m/S 739 mmHg 76%
    08:00 +17°C° 0 mm 6 m/S 738 mmHg 76%
    09:00 +19°C° 0 mm 6 m/S 738 mmHg 75%
    10:00 +20°C° 0 mm 6 m/S 738 mmHg 75%
    11:00 +21°C° 0.1 mm 5 m/S 738 mmHg 73%
    12:00 +21°C° 0.1 mm 5 m/S 738 mmHg 72%
    13:00 +21°C° 0.1 mm 5 m/S 738 mmHg 70%
    14:00 +22°C° 0.4 mm 5 m/S 738 mmHg 70%
    15:00 +22°C° 0.4 mm 4 m/S 738 mmHg 70%
    16:00 +23°C° 0.4 mm 4 m/S 738 mmHg 70%
    17:00 +22°C° 0.8 mm 4 m/S 738 mmHg 75%
    18:00 +21°C° 0.8 mm 3 m/S 738 mmHg 80%
    19:00 +20°C° 0.8 mm 2 m/S 738 mmHg 85%
    20:00 +19°C° 0.5 mm 3 m/S 738 mmHg 88%
    21:00 +17°C° 0.5 mm 3 m/S 739 mmHg 90%
    22:00 +16°C° 0.5 mm 3 m/S 739 mmHg 93%
    23:00 +16°C° 0.2 mm 3 m/S 739 mmHg 93%

    6 Juni, Samstag

    Zeit Temperatur Niederschläge Wind Luftdruck Luftfeuchtigkeit
    00:00 +14°C° 0.2 mm 4 m/S 739 mmHg 94%
    01:00 +14°C° 0.2 mm 4 m/S 740 mmHg 95%
    02:00 +13°C° 1.2 mm 5 m/S 740 mmHg 94%
    03:00 +12°C° 1.2 mm 5 m/S 740 mmHg 94%
    04:00 +11°C° 1.2 mm 6 m/S 741 mmHg 94%
    05:00 +10°C° 1 mm 6 m/S 741 mmHg 93%
    06:00 +10°C° 1 mm 6 m/S 742 mmHg 92%
    07:00 +10°C° 1 mm 5 m/S 742 mmHg 92%
    08:00 +12°C° 0.1 mm 5 m/S 742 mmHg 87%
    09:00 +13°C° 0.1 mm 5 m/S 743 mmHg 82%
    10:00 +14°C° 0.1 mm 4 m/S 743 mmHg 78%
    11:00 +15°C° 0.1 mm 4 m/S 744 mmHg 72%
    12:00 +17°C° 0.1 mm 4 m/S 744 mmHg 67%
    13:00 +18°C° 0.1 mm 3 m/S 744 mmHg 62%
    14:00 +19°C° 0.1 mm 3 m/S 744 mmHg 60%
    15:00 +19°C° 0.1 mm 3 m/S 745 mmHg 59%
    16:00 +19°C° 0.1 mm 3 m/S 745 mmHg 58%
    17:00 +18°C° 0.1 mm 3 m/S 745 mmHg 64%
    18:00 +17°C° 0.1 mm 2 m/S 745 mmHg 70%
    19:00 +16°C° 0.1 mm 2 m/S 745 mmHg 76%
    20:00 +15°C° 0 mm 2 m/S 746 mmHg 78%
    21:00 +14°C° 0 mm 2 m/S 746 mmHg 81%
    22:00 +13°C° 0 mm 2 m/S 747 mmHg 83%
    23:00 +12°C° 0 mm 2 m/S 747 mmHg 84%

    7 Juni, Sonntag

    Zeit Temperatur Niederschläge Wind Luftdruck Luftfeuchtigkeit
    00:00 +12°C° 0 mm 2 m/S 746 mmHg 85%
    01:00 +10°C° 0 mm 2 m/S 746 mmHg 86%
    02:00 +10°C° 0 mm 2 m/S 747 mmHg 86%
    03:00 +11°C° 0 mm 1 m/S 747 mmHg 86%
    04:00 +11°C° 0 mm 1 m/S 747 mmHg 86%
    05:00 +13°C° 0 mm 2 m/S 747 mmHg 81%
    06:00 +14°C° 0 mm 2 m/S 747 mmHg 76%
    07:00 +16°C° 0 mm 2 m/S 747 mmHg 71%
    08:00 +18°C° 0 mm 2 m/S 748 mmHg 65%
    09:00 +19°C° 0 mm 3 m/S 748 mmHg 60%
    10:00 +20°C° 0 mm 3 m/S 748 mmHg 54%
    11:00 +21°C° 0 mm 3 m/S 748 mmHg 52%
    12:00 +22°C° 0 mm 3 m/S 748 mmHg 49%
    13:00 +22°C° 0 mm 3 m/S 748 mmHg 47%
    14:00 +22°C° 0 mm 3 m/S 748 mmHg 48%
    15:00 +22°C° 0 mm 3 m/S 748 mmHg 50%
    16:00 +23°C° 0 mm 2 m/S 748 mmHg 52%
    17:00 +21°C° 0 mm 2 m/S 748 mmHg 58%
    18:00 +20°C° 0 mm 2 m/S 748 mmHg 65%
    19:00 +19°C° 0 mm 2 m/S 748 mmHg 71%
    20:00 +18°C° 0 mm 2 m/S 748 mmHg 74%
    21:00 +17°C° 0 mm 2 m/S 748 mmHg 76%
    22:00 +16°C° 0 mm 2 m/S 749 mmHg 79%
    23:00 +16°C° 0.1 mm 2 m/S 749 mmHg 80%
    Mehr zeigen